Location: Bern�tre
(50.1974°N, 2.0915°E)
Time: 05:47:24
(UTC+00:00)

Cosmos 1937 Rocket - Pass Details

Date: 18 September 2020
Orbit: 747 x 779 km, 74.0° (Epoch: 22 October)

Event Time Altitude Azimuth Distance (km) Brightness Sun altitude
Rises 18:53:57 0° 196° (SSW) 3,234 6.8 -9.7°
Reaches altitude 10° 18:56:20 10° 195° (SSW) 2,307 6.0 -10.1°
Maximum altitude 19:01:33 75° 111° (ESE) 797 3.4 -10.9°
Drops below altitude 10° 19:06:46 10° 27° (NNE) 2,302 5.9 -11.7°
Sets 19:09:08 0° 26° (NNE) 3,227 6.6 -12.1°
